West Columbia, WV

8:56 PM EDT on September 24, 2016 (GMT -0400)
Point Pleasant

Weather History for K3I2 - May, 2014

Change the Weather History Date:

Thursday, May 1, 2014

  Actual Average (KHTS) Record (KHTS)
Temperature  
Mean Temperature 58 °F 60 °F  
Max Temperature 64 °F 72 °F 92 °F (1948)
Min Temperature 53 °F 49 °F 32 °F (1969)
Degree Days  
Heating Degree Days 6 6  
Month to date heating degree days 6  
Since 1 July heating degree days 4394  
Cooling Degree Days 0 1  
Month to date cooling degree days 1  
Year to date cooling degree days 33  
Growing Degree Days 8 (Base 50)    
Moisture  
Dew Point 44 °F    
Average Humidity 64    
Maximum Humidity 94    
Minimum Humidity 37    
Precipitation  
Precipitation 0.00 in 0.14 in 2.01 in (2003)
Month to date precipitation 0.14  
Year to date precipitation 13.52  
Snow  
Snow 0.00 in - - ()
Month to date snowfall  
Since 1 September snowfall  
Snow Depth -    
Sea Level Pressure  
Sea Level Pressure 29.91 in    
Wind  
Wind Speed 5 mph (WSW)    
Max Wind Speed 13 mph    
Max Gust Speed 22 mph    
Visibility 10 miles    
Events      
T = Trace of Precipitation, MM = Missing Value Source: NWS Daily Summary

Daily Weather History Graph

Daily Weather History Graph

Search for Another Location

Airport or City:

Trip Planner

Search our weather history database for the weather conditions in past years. The results will help you decide how hot, cold, wet, or windy it might be!

Date:

Astronomy

May. 01, 2014 Rise Set
Actual Time 6:30 AM EDT 8:21 PM EDT
Civil Twilight 6:01 AM EDT 8:49 PM EDT
Nautical Twilight 5:26 AM EDT 9:24 PM EDT
Astronomical Twilight 4:49 AM EDT 10:02 PM EDT
Moon 8:17 AM EDT (5/1) 10:52 PM EDT (5/1)
Length of Visible Light 14h 48m
Length of Day
13h 50m
Waxing Crescent, 6% of the Moon is Illuminated
May 1
Waxing Crescent
May 6
First Quarter
May 14
Full
May 21
Last Quarter
May 28
New

Hourly Weather History & Observations

Time (EDT) Temp. Dew Point Humidity Pressure Visibility Wind Dir Wind Speed Gust Speed Precip Events Conditions
12:15 AM 57.2 °F 55.4 °F 94% 29.89 in 10.0 mi Calm Calm - N/A   Mostly Cloudy
12:35 AM 57.2 °F 55.4 °F 94% 29.89 in 10.0 mi SSW 4.6 mph - N/A   Overcast
12:55 AM 57.2 °F 55.4 °F 94% 29.90 in 10.0 mi SSW 3.5 mph - N/A   Overcast
1:15 AM 57.2 °F 55.4 °F 94% 29.89 in 10.0 mi Calm Calm - N/A   Overcast
1:35 AM 57.2 °F 55.4 °F 94% 29.90 in 10.0 mi SW 3.5 mph - N/A   Overcast
2:15 AM 57.2 °F 55.4 °F 94% 29.90 in 10.0 mi SSW 3.5 mph - N/A   Overcast
2:35 AM 57.2 °F 55.4 °F 94% 29.90 in 10.0 mi SSW 5.8 mph - N/A   Overcast
2:55 AM 57.2 °F 55.4 °F 94% 29.89 in 10.0 mi SW 5.8 mph - N/A   Overcast
3:15 AM 57.2 °F 55.4 °F 94% 29.89 in 10.0 mi SW 5.8 mph - N/A   Overcast
3:35 AM 55.4 °F 53.6 °F 94% 29.87 in 10.0 mi South 3.5 mph - N/A   Overcast
3:55 AM 55.4 °F 53.6 °F 94% 29.86 in 7.0 mi Calm Calm - N/A   Overcast
4:15 AM 55.4 °F 53.6 °F 94% 29.86 in 4.0 mi SW 4.6 mph - N/A   Overcast
4:35 AM 55.4 °F 53.6 °F 94% 29.87 in 10.0 mi SSW 4.6 mph - N/A   Overcast
4:55 AM 55.4 °F 53.6 °F 94% 29.87 in 10.0 mi SW 3.5 mph - N/A   Overcast
5:15 AM 55.4 °F 51.8 °F 88% 29.89 in 10.0 mi WSW 5.8 mph - N/A   Overcast
5:35 AM 55.4 °F 50.0 °F 82% 29.89 in 10.0 mi WSW 5.8 mph - N/A   Overcast
5:55 AM 55.4 °F 50.0 °F 82% 29.89 in 10.0 mi WSW 5.8 mph - N/A   Overcast
6:15 AM 53.6 °F 50.0 °F 88% 29.89 in 10.0 mi Calm Calm - N/A   Overcast
6:35 AM 53.6 °F 50.0 °F 88% 29.90 in 10.0 mi WSW 6.9 mph - N/A   Overcast
7:15 AM 53.6 °F 46.4 °F 77% 29.91 in 10.0 mi WSW 4.6 mph - N/A   Overcast
7:35 AM 53.6 °F 46.4 °F 77% 29.91 in 10.0 mi WSW 5.8 mph - N/A   Overcast
8:15 AM 53.6 °F 46.4 °F 77% 29.92 in 10.0 mi West 5.8 mph - N/A   Overcast
8:35 AM 53.6 °F 46.4 °F 77% 29.93 in 10.0 mi West 4.6 mph - N/A   Overcast
8:55 AM 53.6 °F 46.4 °F 77% 29.93 in 10.0 mi WSW 4.6 mph - N/A   Overcast
9:15 AM 53.6 °F 46.4 °F 77% 29.93 in 10.0 mi WSW 6.9 mph - N/A   Overcast
9:35 AM 55.4 °F 46.4 °F 72% 29.93 in 10.0 mi WSW 8.1 mph - N/A   Overcast
9:55 AM 55.4 °F 46.4 °F 72% 29.94 in 10.0 mi WSW 11.5 mph - N/A   Overcast
10:15 AM 55.4 °F 44.6 °F 67% 29.94 in 10.0 mi WSW 8.1 mph - N/A   Overcast
10:55 AM 55.4 °F 46.4 °F 72% 29.93 in 10.0 mi SW 8.1 mph - N/A   Overcast
11:15 AM 57.2 °F 46.4 °F 67% 29.93 in 10.0 mi West 4.6 mph - N/A   Overcast
11:35 AM 59.0 °F 46.4 °F 63% 29.93 in 10.0 mi West 3.5 mph - N/A   Overcast
11:55 AM 60.8 °F 44.6 °F 55% 29.94 in 10.0 mi West 6.9 mph - N/A   Mostly Cloudy
12:15 PM 60.8 °F 42.8 °F 52% 29.93 in 10.0 mi WSW 8.1 mph - N/A   Mostly Cloudy
12:35 PM 64.4 °F 41.0 °F 42% 29.93 in 10.0 mi West 9.2 mph - N/A   Scattered Clouds
12:55 PM 60.8 °F 41.0 °F 48% 29.92 in 10.0 mi WSW 5.8 mph - N/A   Mostly Cloudy
1:15 PM 62.6 °F 41.0 °F 45% 29.91 in 10.0 mi WSW 11.5 mph 17.3 mph N/A   Overcast
1:35 PM 62.6 °F 41.0 °F 45% 29.91 in 10.0 mi WSW 11.5 mph 17.3 mph N/A   Overcast
1:55 PM 64.4 °F 41.0 °F 42% 29.91 in 10.0 mi WSW 12.7 mph 18.4 mph N/A   Mostly Cloudy
2:15 PM 62.6 °F 39.2 °F 42% 29.91 in 10.0 mi WSW 10.4 mph 21.9 mph N/A   Mostly Cloudy
2:35 PM 60.8 °F 35.6 °F 39% 29.91 in 10.0 mi WSW 9.2 mph 18.4 mph N/A   Overcast
2:55 PM 62.6 °F 37.4 °F 39% 29.91 in 10.0 mi WSW 10.4 mph - N/A   Overcast
3:15 PM 62.6 °F 35.6 °F 37% 29.91 in 10.0 mi WSW 10.4 mph 21.9 mph N/A   Overcast
3:35 PM 62.6 °F 37.4 °F 39% 29.90 in 10.0 mi West 10.4 mph 18.4 mph N/A   Overcast
3:55 PM 62.6 °F 37.4 °F 39% 29.90 in 10.0 mi WSW 10.4 mph 16.1 mph N/A   Overcast
4:15 PM 62.6 °F 39.2 °F 42% 29.90 in 10.0 mi WSW 12.7 mph - N/A   Mostly Cloudy
4:35 PM 62.6 °F 37.4 °F 39% 29.89 in 10.0 mi West 6.9 mph 19.6 mph N/A   Overcast
4:55 PM 62.6 °F 37.4 °F 39% 29.89 in 10.0 mi WSW 5.8 mph 16.1 mph N/A   Overcast
5:15 PM 60.8 °F 35.6 °F 39% 29.90 in 10.0 mi WSW 9.2 mph - N/A   Overcast
5:55 PM 60.8 °F 37.4 °F 42% 29.90 in 10.0 mi WSW 8.1 mph - N/A   Mostly Cloudy
6:15 PM 60.8 °F 37.4 °F 42% 29.90 in 10.0 mi WSW 8.1 mph - N/A   Overcast
6:35 PM 60.8 °F 37.4 °F 42% 29.90 in 10.0 mi WSW 9.2 mph - N/A   Overcast
6:55 PM 60.8 °F 37.4 °F 42% 29.90 in 10.0 mi WSW 8.1 mph - N/A   Overcast
7:15 PM 59.0 °F 37.4 °F 45% 29.90 in 10.0 mi WSW 4.6 mph - N/A   Overcast
7:35 PM 59.0 °F 37.4 °F 45% 29.91 in 10.0 mi WSW 5.8 mph - N/A   Mostly Cloudy
7:55 PM 59.0 °F 37.4 °F 45% 29.91 in 10.0 mi WSW 3.5 mph - N/A   Mostly Cloudy
8:15 PM 59.0 °F 37.4 °F 45% 29.91 in 10.0 mi WSW 4.6 mph - N/A   Overcast
8:35 PM 55.4 °F 39.2 °F 54% 29.92 in 10.0 mi SW 4.6 mph - N/A   Overcast
8:55 PM 55.4 °F 39.2 °F 54% 29.91 in 10.0 mi SW 5.8 mph - N/A   Overcast
9:15 PM 55.4 °F 37.4 °F 51% 29.91 in 10.0 mi SW 4.6 mph - N/A   Overcast
9:35 PM 55.4 °F 39.2 °F 54% 29.91 in 10.0 mi SW 5.8 mph - N/A   Overcast
9:55 PM 55.4 °F 39.2 °F 54% 29.92 in 10.0 mi WSW 4.6 mph - N/A   Overcast
10:15 PM 53.6 °F 37.4 °F 54% 29.92 in 10.0 mi WSW 5.8 mph - N/A   Overcast
10:35 PM 55.4 °F 37.4 °F 51% 29.91 in 10.0 mi WSW 5.8 mph - N/A   Overcast
10:55 PM 55.4 °F 37.4 °F 51% 29.91 in 10.0 mi WSW 8.1 mph - N/A   Overcast
11:15 PM 55.4 °F 37.4 °F 51% 29.91 in 10.0 mi SW 6.9 mph - N/A   Overcast
11:35 PM 53.6 °F 39.2 °F 58% 29.91 in 10.0 mi WSW 4.6 mph - N/A   Overcast
11:55 PM 53.6 °F 37.4 °F 54% 29.91 in 10.0 mi WSW 4.6 mph - N/A   Overcast